,,,PA_Meas_PMT16A,,PR_Meas_QMR101_102,,RH_Meas_QMH101,,SR_Meas_QMS101,,TA_Meas_QMH101,,GenWind,,GenWind,
date,time,status,PA,status,PR,status,RH,status,SR,status,TA,status,DirAvg,status,SpdAvg,
2011-03-29, 00:00:04,VALID,1002.46,VALID,0,VALID,80.6296,VALID,0,VALID,26.4881,VALID,257,VALID,1.30352,
2011-03-29, 00:01:04,VALID,1002.47,VALID,0,VALID,79.7599,VALID,0,VALID,26.5076,VALID,279,VALID,1.75234,
2011-03-29, 00:02:04,VALID,1002.43,VALID,0,VALID,79.2259,VALID,0,VALID,26.5271,VALID,292,VALID,2.22578,
2011-03-29, 00:03:04,VALID,1002.46,VALID,0,VALID,80.4999,VALID,0,VALID,26.5855,VALID,296,VALID,0.996484,
2011-03-29, 00:04:04,VALID,1002.44,VALID,0,VALID,79.8133,VALID,0,VALID,26.5855,VALID,274,VALID,1.63828,
2011-03-29, 00:05:04,VALID,1002.41,VALID,0,VALID,80.21,VALID,0,VALID,26.605,VALID,276,VALID,1.9582,
2011-03-29, 00:06:04,VALID,1002.4,VALID,0,VALID,80.149,VALID,0,VALID,26.605,VALID,258,VALID,1.55898,
2011-03-29, 00:07:04,VALID,1002.39,VALID,0,VALID,80.8509,VALID,0,VALID,26.646,VALID,257,VALID,0.919922,
2011-03-29, 00:08:04,VALID,1002.35,VALID,0,VALID,80.9272,VALID,0,VALID,26.605,VALID,231,VALID,0.769531,
2011-03-29, 00:09:04,VALID,1002.38,VALID,0,VALID,81.0263,VALID,0,VALID,26.5855,VALID,295,VALID,1.36719,
2011-03-29, 00:10:04,VALID,1002.37,VALID,0,VALID,81.8121,VALID,0,VALID,26.5855,VALID,234,VALID,0.987891,
2011-03-29, 00:11:04,VALID,1002.36,VALID,0,VALID,81.0111,VALID,0,VALID,26.5855,VALID,288,VALID,1.07383,
2011-03-29, 00:12:04,VALID,1002.35,VALID,0,VALID,81.3696,VALID,0,VALID,26.5855,VALID,272,VALID,1.27578,
2011-03-29, 00:13:04,VALID,1002.34,VALID,0,VALID,82.1249,VALID,0,VALID,26.5855,VALID,65,VALID,0.477344,
2011-03-29, 00:14:04,VALID,1002.35,VALID,0,VALID,82.1325,VALID,0,VALID,26.5661,VALID,313,VALID,0.598437,
2011-03-29, 00:15:04,VALID,1002.32,VALID,0,VALID,82.6055,VALID,0,VALID,26.5661,VALID,264,VALID,0.246875,
2011-03-29, 00:16:04,VALID,1002.29,VALID,0,VALID,81.3925,VALID,0,VALID,26.5466,VALID,278,VALID,2.06992,
2011-03-29, 00:17:04,VALID,1002.32,VALID,0,VALID,81.7587,VALID,0,VALID,26.5641,VALID,281,VALID,1.5793,
2011-03-29, 00:18:04,VALID,1002.27,VALID,0,VALID,81.8274,VALID,0,VALID,26.6265,VALID,283,VALID,1.40664,
2011-03-29, 00:19:04,VALID,1002.22,VALID,0,VALID,81.8503,VALID,0,VALID,26.5855,VALID,267,VALID,1.6168,
2011-03-29, 00:20:04,VALID,1002.22,VALID,0,VALID,82.0715,VALID,0,VALID,26.5835,VALID,303,VALID,1.29023,
2011-03-29, 00:21:04,VALID,1002.18,VALID,0,VALID,82.1707,VALID,0,VALID,26.6245,VALID,265,VALID,0.963672,
2011-03-29, 00:22:04,VALID,1002.12,VALID,0,VALID,81.4612,VALID,0,VALID,26.605,VALID,277,VALID,2.34453,
2011-03-29, 00:23:04,VALID,1002.08,VALID,0,VALID,81.1713,VALID,0,VALID,26.646,VALID,293,VALID,2.02773,
2011-03-29, 00:24:04,VALID,1002.08,VALID,0,VALID,81.301,VALID,0,VALID,26.644,VALID,298,VALID,1.5707,
2011-03-29, 00:25:04,VALID,1002.04,VALID,0,VALID,81.6748,VALID,0,VALID,26.6635,VALID,304,VALID,0.812109,
2011-03-29, 00:26:04,VALID,1001.99,VALID,0,VALID,81.156,VALID,0,VALID,26.644,VALID,278,VALID,2.09414,
2011-03-29, 00:27:04,VALID,1001.99,VALID,0,VALID,81.423,VALID,0,VALID,26.685,VALID,285,VALID,1.48438,
2011-03-29, 00:28:04,VALID,1002,VALID,0,VALID,81.9342,VALID,0,VALID,26.6635,VALID,264,VALID,0.882422,
2011-03-29, 00:29:04,VALID,1001.99,VALID,0,VALID,81.69,VALID,0,VALID,26.642,VALID,294,VALID,0.996484,
2011-03-29, 00:30:04,VALID,1001.96,VALID,0,VALID,82.575,VALID,0,VALID,26.6635,VALID,227,VALID,0.672266,
2011-03-29, 00:31:04,VALID,1001.93,VALID,0,VALID,82.7657,VALID,0,VALID,26.601,VALID,255,VALID,0.634766,
2011-03-29, 00:32:04,VALID,1001.93,VALID,0,VALID,82.7657,VALID,0,VALID,26.603,VALID,273,VALID,0.603906,
2011-03-29, 00:33:04,VALID,1001.9,VALID,0,VALID,83.254,VALID,0,VALID,26.5641,VALID,10,VALID,0.88125,
2011-03-29, 00:34:04,VALID,1001.9,VALID,0,VALID,83.1395,VALID,0,VALID,26.5446,VALID,321,VALID,0.631641,
2011-03-29, 00:35:04,VALID,1001.89,VALID,0,VALID,83.5668,VALID,0,VALID,26.5251,VALID,257,VALID,0.501562,
2011-03-29, 00:36:04,VALID,1001.88,VALID,0,VALID,83.5515,VALID,0,VALID,26.5056,VALID,237,VALID,1.03086,
2011-03-29, 00:37:04,VALID,1001.87,VALID,0,VALID,84.1084,VALID,0,VALID,26.5251,VALID,255,VALID,0.980469,
2011-03-29, 00:38:04,VALID,1001.83,VALID,0,VALID,83.8643,VALID,0,VALID,26.5446,VALID,215,VALID,0.432422,
2011-03-29, 00:39:04,VALID,1001.77,VALID,0,VALID,83.4294,VALID,0,VALID,26.5641,VALID,253,VALID,0.885547,
2011-03-29, 00:40:04,VALID,1001.76,VALID,0,VALID,83.9863,VALID,0,VALID,26.5835,VALID,227,VALID,0.539844,
2011-03-29, 00:41:04,VALID,1001.73,VALID,0,VALID,84.2076,VALID,0,VALID,26.5641,VALID,303,VALID,0.914453,
2011-03-29, 00:42:04,VALID,1001.73,VALID,0,VALID,84.3602,VALID,0,VALID,26.5835,VALID,260,VALID,0.898828,
2011-03-29, 00:43:04,VALID,1001.74,VALID,0,VALID,84.4517,VALID,0,VALID,26.5835,VALID,277,VALID,1.29062,
2011-03-29, 00:44:04,VALID,1001.73,VALID,0,VALID,84.1084,VALID,0,VALID,26.644,VALID,282,VALID,1.33359,
2011-03-29, 00:45:04,VALID,1001.71,VALID,0,VALID,83.8948,VALID,0,VALID,26.642,VALID,296,VALID,1.16641,
2011-03-29, 00:46:04,VALID,1001.7,VALID,0,VALID,84.1389,VALID,0,VALID,26.642,VALID,287,VALID,0.926953,
2011-03-29, 00:47:04,VALID,1001.65,VALID,0,VALID,84.2534,VALID,0,VALID,26.6635,VALID,278,VALID,1.54688,
2011-03-29, 00:48:04,VALID,1001.61,VALID,0,VALID,84.2305,VALID,0,VALID,26.6614,VALID,235,VALID,0.657031,
2011-03-29, 00:49:04,VALID,1001.57,VALID,0,VALID,84.0321,VALID,0,VALID,26.7024,VALID,290,VALID,0.662109,
2011-03-29, 00:50:04,VALID,1001.56,VALID,0,VALID,85.0849,VALID,0,VALID,26.6614,VALID,294,VALID,0.225781,
2011-03-29, 00:51:04,VALID,1001.58,VALID,0,VALID,85.001,VALID,0,VALID,26.6205,VALID,295,VALID,0.509375,
2011-03-29, 00:52:04,VALID,1001.49,VALID,0,VALID,84.5585,VALID,0,VALID,26.642,VALID,278,VALID,1.98398,
2011-03-29, 00:53:04,VALID,1001.49,VALID,0,VALID,84.7263,VALID,0,VALID,26.6614,VALID,304,VALID,0.683203,
2011-03-29, 00:54:04,VALID,1001.45,VALID,0,VALID,85.1917,VALID,0,VALID,26.642,VALID,303,VALID,0.4625,
2011-03-29, 00:55:04,VALID,1001.42,VALID,0,VALID,85.6571,VALID,0,VALID,26.6225,VALID,283,VALID,0.747266,
2011-03-29, 00:56:04,VALID,1001.41,VALID,0,VALID,85.4816,VALID,0.100563,VALID,26.603,VALID,250,VALID,0.801562,
2011-03-29, 00:57:04,VALID,1001.42,VALID,0,VALID,85.7105,VALID,0,VALID,26.5835,VALID,205,VALID,0.70625,
2011-03-29, 00:58:04,VALID,1001.43,VALID,0,VALID,86.2521,VALID,0,VALID,26.5835,VALID,334,VALID,0.470703,
2011-03-29, 00:59:04,VALID,1001.41,VALID,0,VALID,86.6946,VALID,0,VALID,26.5835,VALID,239,VALID,0.821484,
2011-03-29, 01:00:04,VALID,1001.43,VALID,0,VALID,86.0385,VALID,0,VALID,26.5835,VALID,334,VALID,1.10391,
2011-03-29, 01:01:04,VALID,1001.43,VALID,0,VALID,86.5573,VALID,0,VALID,26.603,VALID,292,VALID,0.626953,
2011-03-29, 01:02:04,VALID,1001.46,VALID,0,VALID,85.9546,VALID,0,VALID,26.603,VALID,287,VALID,0.673828,
2011-03-29, 01:03:04,VALID,1001.45,VALID,0,VALID,85.9088,VALID,0,VALID,26.6225,VALID,218,VALID,0.719141,
2011-03-29, 01:04:04,VALID,1001.42,VALID,0,VALID,85.9927,VALID,0,VALID,26.642,VALID,79,VALID,0.582812,
2011-03-29, 01:05:04,VALID,1001.42,VALID,0,VALID,85.5198,VALID,0,VALID,26.6614,VALID,282,VALID,0.885938,
2011-03-29, 01:06:04,VALID,1001.42,VALID,0,VALID,85.1917,VALID,0,VALID,26.683,VALID,264,VALID,1.1582,
2011-03-29, 01:07:04,VALID,1001.42,VALID,0,VALID,85.3061,VALID,0,VALID,26.7004,VALID,265,VALID,0.671875,
2011-03-29, 01:08:04,VALID,1001.41,VALID,0,VALID,85.0773,VALID,0,VALID,26.7394,VALID,276,VALID,1.16562,
2011-03-29, 01:09:04,VALID,1001.4,VALID,0,VALID,84.8866,VALID,0,VALID,26.7589,VALID,161,VALID,0.935938,
2011-03-29, 01:10:04,VALID,1001.4,VALID,0,VALID,84.8103,VALID,0,VALID,26.7783,VALID,273,VALID,0.90625,
2011-03-29, 01:11:04,VALID,1001.4,VALID,0,VALID,85.2527,VALID,0,VALID,26.7998,VALID,285,VALID,0.365625,
2011-03-29, 01:12:04,VALID,1001.39,VALID,0,VALID,84.3602,VALID,0,VALID,26.7783,VALID,291,VALID,2.19805,
2011-03-29, 01:13:04,VALID,1001.4,VALID,0,VALID,84.2076,VALID,0,VALID,26.8368,VALID,286,VALID,1.94297,
2011-03-29, 01:14:04,VALID,1001.38,VALID,0,VALID,84.1237,VALID,0.100563,VALID,26.8973,VALID,277,VALID,0.76875,
2011-03-29, 01:15:04,VALID,1001.39,VALID,0,VALID,84.0779,VALID,0.100563,VALID,26.8952,VALID,331,VALID,0.452344,
2011-03-29, 01:16:04,VALID,1001.37,VALID,0,VALID,83.5973,VALID,0,VALID,26.9167,VALID,305,VALID,2.35859,
2011-03-29, 01:17:04,VALID,1001.36,VALID,0,VALID,83.9329,VALID,0,VALID,26.9147,VALID,289,VALID,1.43125,
2011-03-29, 01:18:04,VALID,1001.35,VALID,0,VALID,84.2228,VALID,0,VALID,26.8757,VALID,300,VALID,1.08867,
2011-03-29, 01:19:04,VALID,1001.35,VALID,0,VALID,84.5051,VALID,0,VALID,26.8563,VALID,287,VALID,1.39805,
2011-03-29, 01:20:04,VALID,1001.32,VALID,0,VALID,84.5051,VALID,0,VALID,26.8583,VALID,268,VALID,1.38047,
2011-03-29, 01:21:04,VALID,1001.32,VALID,0,VALID,84.383,VALID,0,VALID,26.8778,VALID,261,VALID,1.2793,
2011-03-29, 01:22:04,VALID,1001.32,VALID,0,VALID,83.5591,VALID,0,VALID,26.8778,VALID,294,VALID,1.79375,
2011-03-29, 01:23:04,VALID,1001.31,VALID,0,VALID,83.582,VALID,0,VALID,26.9167,VALID,298,VALID,1.7293,
2011-03-29, 01:24:04,VALID,1001.28,VALID,0,VALID,83.2006,VALID,0,VALID,26.9167,VALID,271,VALID,1.14805,
2011-03-29, 01:25:04,VALID,1001.3,VALID,0,VALID,83.5896,VALID,0,VALID,26.9578,VALID,290,VALID,1.55039,
2011-03-29, 01:26:04,VALID,1001.26,VALID,0,VALID,83.727,VALID,0,VALID,26.9147,VALID,293,VALID,0.958594,
2011-03-29, 01:27:04,VALID,1001.27,VALID,0,VALID,84.1237,VALID,0,VALID,26.9147,VALID,268,VALID,0.577344,
2011-03-29, 01:28:04,VALID,1001.24,VALID,0,VALID,84.7035,VALID,0,VALID,26.8952,VALID,294,VALID,0.464453,
2011-03-29, 01:29:04,VALID,1001.24,VALID,0,VALID,84.9705,VALID,0,VALID,26.8583,VALID,283,VALID,0.739844,
2011-03-29, 01:30:04,VALID,1001.23,VALID,0,VALID,84.2762,VALID,0.100563,VALID,26.8388,VALID,293,VALID,2.21328,
2011-03-29, 01:31:04,VALID,1001.18,VALID,0,VALID,84.116,VALID,0,VALID,26.8368,VALID,286,VALID,1.27813,
2011-03-29, 01:32:04,VALID,1001.19,VALID,0,VALID,84.322,VALID,0,VALID,26.8368,VALID,272,VALID,0.959375,
2011-03-29, 01:33:04,VALID,1001.19,VALID,0,VALID,84.4593,VALID,0,VALID,26.8368,VALID,284,VALID,1.23203,
2011-03-29, 01:34:04,VALID,1001.18,VALID,0,VALID,84.3296,VALID,0,VALID,26.8368,VALID,328,VALID,0.694141,
2011-03-29, 01:35:04,VALID,1001.16,VALID,0,VALID,84.7874,VALID,0,VALID,26.8368,VALID,329,VALID,0.235156,
2011-03-29, 01:36:04,VALID,1001.14,VALID,0,VALID,84.8484,VALID,0,VALID,26.7978,VALID,325,VALID,0.513281,
2011-03-29, 01:37:04,VALID,1001.09,VALID,0,VALID,84.5204,VALID,0,VALID,26.7978,VALID,301,VALID,1.24961,
2011-03-29, 01:38:04,VALID,1001.1,VALID,0,VALID,84.5051,VALID,0,VALID,26.8368,VALID,303,VALID,0.929688,
2011-03-29, 01:39:04,VALID,1001.08,VALID,0,VALID,85.0239,VALID,0,VALID,26.8173,VALID,304,VALID,0.789453,
2011-03-29, 01:40:04,VALID,1001.05,VALID,0,VALID,85.0696,VALID,0,VALID,26.8388,VALID,265,VALID,0.66875,
2011-03-29, 01:41:04,VALID,1001.06,VALID,0,VALID,85.3061,VALID,0,VALID,26.8193,VALID,306,VALID,0.332812,
2011-03-29, 01:42:04,VALID,1001.03,VALID,0,VALID,85.6189,VALID,0,VALID,26.7783,VALID,298,VALID,1.0625,
2011-03-29, 01:43:04,VALID,1001.04,VALID,0,VALID,86.1606,VALID,0,VALID,26.7804,VALID,302,VALID,0.280859,
2011-03-29, 01:44:04,VALID,1001.02,VALID,0,VALID,86.2521,VALID,0,VALID,26.7199,VALID,324,VALID,0.634375,
2011-03-29, 01:45:04,VALID,1000.99,VALID,0,VALID,86.4734,VALID,0,VALID,26.7199,VALID,293,VALID,0.619531,
2011-03-29, 01:46:04,VALID,1000.98,VALID,0,VALID,85.9241,VALID,0,VALID,26.7414,VALID,295,VALID,1.54805,
2011-03-29, 01:47:04,VALID,1000.93,VALID,0,VALID,86.1148,VALID,0,VALID,26.7394,VALID,297,VALID,0.718359,
2011-03-29, 01:48:04,VALID,1000.92,VALID,0,VALID,86.0385,VALID,0,VALID,26.7589,VALID,254,VALID,0.665625,
2011-03-29, 01:49:04,VALID,1000.89,VALID,0,VALID,85.8783,VALID,0,VALID,26.7998,VALID,283,VALID,0.655859,
2011-03-29, 01:50:04,VALID,1000.84,VALID,0,VALID,85.8936,VALID,0,VALID,26.7998,VALID,295,VALID,0.516406,
2011-03-29, 01:51:04,VALID,1000.81,VALID,0,VALID,86.0385,VALID,0,VALID,26.7998,VALID,302,VALID,0.195313,
2011-03-29, 01:52:04,VALID,1000.79,VALID,0,VALID,86.1835,VALID,0,VALID,26.8193,VALID,298,VALID,0.408203,
2011-03-29, 01:53:04,VALID,1000.74,VALID,0,VALID,85.9241,VALID,0,VALID,26.7783,VALID,296,VALID,0.853516,
2011-03-29, 01:54:04,VALID,1000.76,VALID,0,VALID,86.8243,VALID,0,VALID,26.7589,VALID,309,VALID,0.529297,
2011-03-29, 01:55:04,VALID,1000.74,VALID,0,VALID,86.0767,VALID,0,VALID,26.7179,VALID,305,VALID,0.963281,
2011-03-29, 01:56:04,VALID,1000.72,VALID,0,VALID,86.4962,VALID,0,VALID,26.7394,VALID,184,VALID,0.19375,
2011-03-29, 01:57:04,VALID,1000.74,VALID,0,VALID,86.1529,VALID,0,VALID,26.7394,VALID,332,VALID,0.953516,
2011-03-29, 01:58:04,VALID,1000.73,VALID,0,VALID,85.9546,VALID,0,VALID,26.7804,VALID,325,VALID,0.891016,
2011-03-29, 01:59:04,VALID,1000.74,VALID,0,VALID,86.2521,VALID,0,VALID,26.7589,VALID,303,VALID,0.893359,
2011-03-29, 02:00:04,VALID,1000.75,VALID,0,VALID,85.8631,VALID,0,VALID,26.7804,VALID,298,VALID,0.528516,
2011-03-29, 02:01:04,VALID,1000.76,VALID,0,VALID,85.8249,VALID,0,VALID,26.7783,VALID,268,VALID,0.715234,
2011-03-29, 02:02:04,VALID,1000.75,VALID,0,VALID,85.802,VALID,0,VALID,26.7783,VALID,340,VALID,0.741406,
2011-03-29, 02:03:04,VALID,1000.76,VALID,0,VALID,86.0461,VALID,0,VALID,26.7998,VALID,312,VALID,0.809375,
2011-03-29, 02:04:04,VALID,1000.77,VALID,0,VALID,85.6418,VALID,0,VALID,26.7998,VALID,311,VALID,0.953125,
2011-03-29, 02:05:04,VALID,1000.78,VALID,0,VALID,85.6418,VALID,0,VALID,26.7783,VALID,284,VALID,0.557422,
2011-03-29, 02:06:04,VALID,1000.78,VALID,0,VALID,85.7257,VALID,0,VALID,26.7783,VALID,254,VALID,0.614453,
2011-03-29, 02:07:04,VALID,1000.78,VALID,0,VALID,85.8554,VALID,0,VALID,26.7998,VALID,304,VALID,0.494531,
2011-03-29, 02:08:04,VALID,1000.77,VALID,0,VALID,86.0233,VALID,0,VALID,26.7783,VALID,337,VALID,0.632813,
2011-03-29, 02:09:04,VALID,1000.76,VALID,0,VALID,86.1148,VALID,0,VALID,26.7414,VALID,311,VALID,0.930469,
2011-03-29, 02:10:04,VALID,1000.76,VALID,0,VALID,86.8472,VALID,0,VALID,26.7024,VALID,343,VALID,0.316797,
2011-03-29, 02:11:04,VALID,1000.72,VALID,0,VALID,87.2973,VALID,0,VALID,26.6635,VALID,344,VALID,0.289453,
2011-03-29, 02:12:04,VALID,1000.73,VALID,0,VALID,87.6024,VALID,0,VALID,26.603,VALID,288,VALID,0.328906,
2011-03-29, 02:13:04,VALID,1000.71,VALID,0,VALID,87.5872,VALID,0.100563,VALID,26.5835,VALID,314,VALID,0.455859,
2011-03-29, 02:14:04,VALID,1000.69,VALID,0,VALID,87.7779,VALID,0,VALID,26.5855,VALID,285,VALID,0.759375,
2011-03-29, 02:15:04,VALID,1000.67,VALID,0,VALID,87.8618,VALID,0,VALID,26.5446,VALID,314,VALID,0.0835937,
2011-03-29, 02:16:04,VALID,1000.71,VALID,0,VALID,87.9457,VALID,0,VALID,26.5251,VALID,318,VALID,0.282031,
2011-03-29, 02:17:04,VALID,1000.73,VALID,0,VALID,88.0373,VALID,0,VALID,26.5661,VALID,308,VALID,0.265234,
2011-03-29, 02:18:04,VALID,1000.7,VALID,0,VALID,87.8847,VALID,0,VALID,26.5271,VALID,321,VALID,0.808594,
2011-03-29, 02:19:04,VALID,1000.71,VALID,0,VALID,87.9381,VALID,0,VALID,26.5076,VALID,345,VALID,0.575,
2011-03-29, 02:20:04,VALID,1000.69,VALID,0,VALID,88.6628,VALID,0.100563,VALID,26.4861,VALID,347,VALID,0.502734,
2011-03-29, 02:21:04,VALID,1000.73,VALID,0,VALID,88.5026,VALID,0,VALID,26.4472,VALID,343,VALID,0.25,
2011-03-29, 02:22:04,VALID,1000.73,VALID,0,VALID,88.7697,VALID,0,VALID,26.4297,VALID,342,VALID,0.367969,
2011-03-29, 02:23:04,VALID,1000.72,VALID,0,VALID,88.9222,VALID,0.100563,VALID,26.3907,VALID,313,VALID,0.408594,
2011-03-29, 02:24:04,VALID,1000.71,VALID,0,VALID,89.5936,VALID,0.100563,VALID,26.3498,VALID,358,VALID,0.391797,
2011-03-29, 02:25:04,VALID,1000.7,VALID,0,VALID,89.5707,VALID,0,VALID,26.3323,VALID,357,VALID,0.404687,
2011-03-29, 02:26:04,VALID,1000.69,VALID,0,VALID,89.6775,VALID,0,VALID,26.2933,VALID,357,VALID,0.249609,
2011-03-29, 02:27:04,VALID,1000.7,VALID,0,VALID,89.853,VALID,0,VALID,26.2739,VALID,357,VALID,0.474219,
2011-03-29, 02:28:04,VALID,1000.69,VALID,0,VALID,90.2344,VALID,0,VALID,26.194,VALID,357,VALID,0.40625,
2011-03-29, 02:29:04,VALID,1000.7,VALID,0,VALID,90.5167,VALID,0,VALID,26.1959,VALID,357,VALID,0.384766,
2011-03-29, 02:30:04,VALID,1000.69,VALID,0,VALID,90.7532,VALID,0,VALID,26.1355,VALID,357,VALID,0.315234,
2011-03-29, 02:31:04,VALID,1000.69,VALID,0,VALID,91.0507,VALID,0,VALID,26.0966,VALID,355,VALID,0.441016,
2011-03-29, 02:32:04,VALID,1000.69,VALID,0,VALID,91.188,VALID,0,VALID,26.0576,VALID,354,VALID,0.536328,
2011-03-29, 02:33:04,VALID,1000.68,VALID,0,VALID,91.333,VALID,0,VALID,26.0187,VALID,354,VALID,0.433984,
2011-03-29, 02:34:04,VALID,1000.69,VALID,0,VALID,91.7754,VALID,0,VALID,26.0206,VALID,353,VALID,0.200391,
2011-03-29, 02:35:04,VALID,1000.67,VALID,0,VALID,91.6381,VALID,0,VALID,26.0012,VALID,353,VALID,0.201562,
2011-03-29, 02:36:04,VALID,1000.68,VALID,0,VALID,91.8822,VALID,0,VALID,25.9602,VALID,353,VALID,0.0867188,
2011-03-29, 02:37:04,VALID,1000.68,VALID,0,VALID,92.0806,VALID,0,VALID,25.9622,VALID,353,VALID,0.229687,
2011-03-29, 02:38:04,VALID,1000.67,VALID,0,VALID,92.6451,VALID,0,VALID,25.9018,VALID,353,VALID,0.462109,
2011-03-29, 02:39:04,VALID,1000.67,VALID,0,VALID,93.0037,VALID,0,VALID,25.8629,VALID,349,VALID,0.167969,
2011-03-29, 02:40:04,VALID,1000.71,VALID,0,VALID,93.347,VALID,0,VALID,25.8239,VALID,349,VALID,0.109375,
2011-03-29, 02:41:04,VALID,1000.72,VALID,0,VALID,92.7138,VALID,0,VALID,25.785,VALID,344,VALID,0.309375,
2011-03-29, 02:42:04,VALID,1000.71,VALID,0,VALID,93.1486,VALID,0,VALID,25.8044,VALID,344,VALID,0,
2011-03-29, 02:43:04,VALID,1000.7,VALID,0,VALID,92.9961,VALID,0,VALID,25.7869,VALID,345,VALID,0.4375,
2011-03-29, 02:44:04,VALID,1000.73,VALID,0,VALID,94.0794,VALID,0,VALID,25.7265,VALID,345,VALID,0.339063,
2011-03-29, 02:45:04,VALID,1000.73,VALID,0,VALID,93.9344,VALID,0,VALID,25.6876,VALID,345,VALID,0.455078,
2011-03-29, 02:46:04,VALID,1000.73,VALID,0,VALID,94.5447,VALID,0,VALID,25.6876,VALID,345,VALID,0.00195313,
2011-03-29, 02:47:04,VALID,1000.71,VALID,0,VALID,94.827,VALID,0,VALID,25.6895,VALID,346,VALID,0.426953,
2011-03-29, 02:48:04,VALID,1000.71,VALID,0,VALID,94.8346,VALID,0,VALID,25.6486,VALID,352,VALID,0.498828,
2011-03-29, 02:49:04,VALID,1000.72,VALID,0,VALID,94.3616,VALID,0,VALID,25.6486,VALID,352,VALID,0.1375,
2011-03-29, 02:50:04,VALID,1000.71,VALID,0,VALID,93.7589,VALID,0,VALID,25.67,VALID,293,VALID,0.79375,
2011-03-29, 02:51:04,VALID,1000.69,VALID,0,VALID,93.1257,VALID,0,VALID,25.7285,VALID,298,VALID,0.708984,
2011-03-29, 02:52:04,VALID,1000.72,VALID,0,VALID,93.1029,VALID,0,VALID,25.785,VALID,318,VALID,0.285547,
2011-03-29, 02:53:04,VALID,1000.71,VALID,0,VALID,92.9961,VALID,0.100563,VALID,25.8648,VALID,18,VALID,0.129688,
2011-03-29, 02:54:04,VALID,1000.72,VALID,0,VALID,92.8053,VALID,0,VALID,25.8629,VALID,289,VALID,0.586719,
2011-03-29, 02:55:04,VALID,1000.7,VALID,0,VALID,92.6756,VALID,0.100563,VALID,25.9018,VALID,314,VALID,0.54375,
2011-03-29, 02:56:04,VALID,1000.69,VALID,0,VALID,92.874,VALID,0,VALID,25.9427,VALID,318,VALID,0.0851562,
2011-03-29, 02:57:04,VALID,1000.68,VALID,0,VALID,93.0571,VALID,0,VALID,25.9602,VALID,317,VALID,0.3625,
2011-03-29, 02:58:04,VALID,1000.66,VALID,0,VALID,93.6903,VALID,0.100563,VALID,25.9992,VALID,346,VALID,0.558594,
2011-03-29, 02:59:04,VALID,1000.64,VALID,0,VALID,92.8206,VALID,0,VALID,26.0012,VALID,336,VALID,0.753516,
2011-03-29, 03:00:04,VALID,1000.61,VALID,0,VALID,94.209,VALID,0,VALID,26.0012,VALID,6,VALID,0.915625,
2011-03-29, 03:01:04,VALID,1000.64,VALID,0,VALID,93.7742,VALID,0,VALID,25.9817,VALID,348,VALID,0.692969,
2011-03-29, 03:02:04,VALID,1000.63,VALID,0,VALID,93.9115,VALID,0,VALID,26.0012,VALID,349,VALID,0.834766,
2011-03-29, 03:03:04,VALID,1000.63,VALID,0,VALID,94.4761,VALID,0,VALID,25.9817,VALID,354,VALID,0.644922,
2011-03-29, 03:04:04,VALID,1000.61,VALID,0,VALID,94.1556,VALID,0,VALID,25.9817,VALID,348,VALID,0.889453,
2011-03-29, 03:05:04,VALID,1000.57,VALID,0,VALID,94.3921,VALID,0,VALID,25.9817,VALID,355,VALID,0.384766,
2011-03-29, 03:06:04,VALID,1000.57,VALID,0,VALID,94.0412,VALID,0,VALID,26.0226,VALID,355,VALID,0.294141,
2011-03-29, 03:07:04,VALID,1000.56,VALID,0,VALID,94.2701,VALID,0,VALID,26.0012,VALID,355,VALID,0.312891,
2011-03-29, 03:08:04,VALID,1000.55,VALID,0,VALID,94.5752,VALID,0,VALID,26.0206,VALID,328,VALID,0.3125,
2011-03-29, 03:09:04,VALID,1000.55,VALID,0,VALID,95.0864,VALID,0,VALID,26.0421,VALID,328,VALID,0,
2011-03-29, 03:10:04,VALID,1000.51,VALID,0,VALID,94.5752,VALID,0,VALID,26.0012,VALID,328,VALID,0.295703,
2011-03-29, 03:11:04,VALID,1000.51,VALID,0,VALID,94.8804,VALID,0,VALID,26.0616,VALID,328,VALID,0.0078125,
2011-03-29, 03:12:04,VALID,1000.5,VALID,0,VALID,94.5447,VALID,0,VALID,26.0401,VALID,328,VALID,0.40625,
2011-03-29, 03:13:04,VALID,1000.5,VALID,0,VALID,95.2923,VALID,0,VALID,26.0401,VALID,329,VALID,0.0417969,
2011-03-29, 03:14:04,VALID,1000.53,VALID,0,VALID,95.0558,VALID,0,VALID,26.0381,VALID,329,VALID,0.101563,
2011-03-29, 03:15:04,VALID,1000.51,VALID,0,VALID,94.9338,VALID,0,VALID,26.0187,VALID,329,VALID,0.237891,
2011-03-29, 03:16:04,VALID,1000.53,VALID,0,VALID,96.2078,VALID,0,VALID,26.0381,VALID,329,VALID,0.516406,
2011-03-29, 03:17:04,VALID,1000.57,VALID,0,VALID,97.0088,VALID,0,VALID,25.9797,VALID,9,VALID,0.888672,
2011-03-29, 03:18:04,VALID,1000.52,VALID,0,VALID,94.1862,VALID,0,VALID,25.9213,VALID,353,VALID,0.801172,
2011-03-29, 03:19:04,VALID,1000.51,VALID,0,VALID,94.0641,VALID,0,VALID,25.9817,VALID,2,VALID,0.670703,
2011-03-29, 03:20:04,VALID,1000.49,VALID,0,VALID,93.6445,VALID,0,VALID,26.0401,VALID,357,VALID,0.0703125,
2011-03-29, 03:21:04,VALID,1000.47,VALID,0,VALID,93.4614,VALID,0,VALID,26.0167,VALID,281,VALID,0.337891,
2011-03-29, 03:22:04,VALID,1000.46,VALID,0,VALID,94.0412,VALID,0.100563,VALID,26.0576,VALID,281,VALID,0,
2011-03-29, 03:23:04,VALID,1000.47,VALID,0,VALID,94.0412,VALID,0,VALID,26.0381,VALID,281,VALID,0,
2011-03-29, 03:24:04,VALID,1000.44,VALID,0,VALID,94.7278,VALID,0,VALID,26.0401,VALID,281,VALID,0.355469,
2011-03-29, 03:25:04,VALID,1000.47,VALID,0,VALID,95.0787,VALID,0.100563,VALID,25.9797,VALID,281,VALID,0,
2011-03-29, 03:26:04,VALID,1000.48,VALID,0,VALID,96.0247,VALID,0,VALID,25.9408,VALID,281,VALID,0.298438,
2011-03-29, 03:27:04,VALID,1000.51,VALID,0,VALID,95.834,VALID,0,VALID,25.9018,VALID,281,VALID,0.115234,
2011-03-29, 03:28:04,VALID,1000.45,VALID,0,VALID,99.1602,VALID,0.100563,VALID,25.8843,VALID,281,VALID,0,
2011-03-29, 03:29:04,VALID,1000.48,VALID,0,VALID,101.929,VALID,0,VALID,25.8259,VALID,281,VALID,0,
2011-03-29, 03:30:04,VALID,1000.45,VALID,0,VALID,101.212,VALID,0.100563,VALID,25.746,VALID,281,VALID,0,
2011-03-29, 03:31:04,VALID,1000.46,VALID,0,VALID,104,VALID,0,VALID,25.7285,VALID,281,VALID,0.331641,
2011-03-29, 03:32:04,VALID,1000.43,VALID,0,VALID,104,VALID,0.100563,VALID,25.6681,VALID,281,VALID,0.408203,
2011-03-29, 03:33:04,VALID,1000.45,VALID,0,INVALID,136.328,VALID,0,VALID,25.6097,VALID,282,VALID,0.633984,
2011-03-29, 03:34:04,VALID,1000.43,VALID,0,INVALID,163.563,VALID,0,VALID,25.5123,VALID,282,VALID,0.397656,
2011-03-29, 03:35:04,VALID,1000.45,VALID,0,INVALID,163.624,VALID,0,VALID,25.4539,VALID,347,VALID,0.369141,
2011-03-29, 03:36:04,VALID,1000.42,VALID,0,INVALID,163.601,VALID,0.100563,VALID,25.4149,VALID,347,VALID,0.429297,
2011-03-29, 03:37:04,VALID,1000.44,VALID,0,INVALID,163.617,VALID,0,VALID,25.3565,VALID,355,VALID,0.589844,
2011-03-29, 03:38:04,VALID,1000.44,VALID,0,INVALID,163.617,VALID,0,VALID,25.2786,VALID,323,VALID,0.421484,
2011-03-29, 03:39:04,VALID,1000.42,VALID,0,INVALID,163.624,VALID,0,VALID,25.2592,VALID,271,VALID,0.00351562,
2011-03-29, 03:40:04,VALID,1000.39,VALID,0,INVALID,163.594,VALID,0,VALID,25.1988,VALID,271,VALID,0.521484,
2011-03-29, 03:41:04,VALID,1000.39,VALID,0,INVALID,163.617,VALID,0,VALID,25.1832,VALID,271,VALID,0.251563,
2011-03-29, 03:42:04,VALID,1000.41,VALID,0,INVALID,163.617,VALID,0,VALID,25.1637,VALID,271,VALID,0.0550781,
2011-03-29, 03:43:04,VALID,1000.4,VALID,0,INVALID,163.655,VALID,0,VALID,25.1034,VALID,271,VALID,0,
2011-03-29, 03:44:04,VALID,1000.41,VALID,0,INVALID,163.624,VALID,0,VALID,25.0839,VALID,271,VALID,0.581641,